Location: Babice
(50.3480°N, 22.9363°E)
Time: 11:16:54
(UTC+00:00)

Cosmos 1500 - Pass Details

Date: 14 July 2020
Orbit: 498 x 520 km, 82.5° (Epoch: 08 August)

Event Time Altitude Azimuth Distance (km) Brightness Sun altitude
Exits shadow 00:58:20 17° 225° (SW) 1,362 4.7 -11.3°
Maximum altitude 01:00:52 37° 286° (WNW) 809 4.0 -11.1°
Drops below altitude 10° 01:04:25 10° 355° (N) 1,736 6.7 -10.7°
Sets 01:06:40 0° 4° (N) 2,623 7.9 -10.5°
